Vorticity
nan nan nan nan nan nan nan nan nan nan nan nan nan nan nan nan nan nan nan nan nan nan
nan 8 8 8 5 7 8 9 10 9 9 8 6 4 4 6 9 8 8 10 8 nan
nan 10 8 8 8 6 8 9 8 7 7 7 6 6 5 5 8 7 7 10 10 nan
nan 9 8 9 10 8 7 7 6 8 6 6 6 6 6 5 7 7 6 6 8 nan
nan 7 8 9 10 10 8 7 7 6 6 7 7 7 6 7 7 7 6 6 8 nan
nan 9 8 8 9 10 10 9 9 8 8 8 8 7 7 8 8 9 8 8 8 nan
nan 9 9 10 8 10 12 11 10 10 9 9 10 10 9 9 9 8 8 10 9 nan
nan 9 9 11 11 9 8 10 10 10 10 9 8 11 13 10 9 9 8 8 8 nan
nan 10 9 9 9 10 10 9 9 9 9 7 8 12 11 8 8 9 10 9 9 nan
nan 10 10 10 9 9 10 10 10 9 9 9 8 13 13 9 6 8 10 13 13 nan
nan 10 10 11 9 9 10 10 10 11 10 9 10 14 13 12 9 9 14 16 17 nan
nan 11 11 10 11 10 10 12 11 11 15 14 15 20 16 10 12 13 11 13 17 nan
nan 12 12 11 12 12 12 14 16 13 12 22 17 14 25 14 10 16 10 9 11 nan
nan nan nan nan nan nan nan nan nan nan nan nan nan nan nan nan nan nan nan nan nan nan
CAPE
0 0 0 0 0 0 0 0 0 0 0 7 33 55 74 42 32 79 96 85 60 58
8 3 1 0 0 0 0 0 0 0 0 0 5 4 17 47 27 40 81 26 38 36
10 7 0 0 0 0 0 0 0 0 0 0 0 0 1 20 46 51 82 84 61 63
11 17 7 8 1 0 0 0 0 0 0 0 0 0 2 8 9 44 25 33 42 61
9 9 11 15 13 0 0 0 0 0 0 0 0 0 0 2 0 3 18 23 56 46
1 4 7 13 16 8 0 2 0 0 2 0 0 0 0 0 0 0 0 2 27 13
47 47 10 0 5 44 31 13 9 5 0 1 1 0 0 0 0 0 1 5 19 32
89 84 95 90 40 7 35 45 28 5 0 0 3 0 0 0 0 0 8 26 15 9
97 149 106 65 69 59 34 43 32 26 19 4 0 0 0 0 0 0 0 0 5 1
122 121 209 106 49 79 76 65 41 19 11 4 7 0 0 0 0 1 2 2 0 1
483 242 177 174 107 76 61 59 61 59 46 27 18 6 0 0 0 0 0 0 0 0
616 501 363 211 183 137 93 72 45 16 5 3 1 0 0 0 0 0 0 1 1 0
586 578 534 439 327 191 134 98 60 34 0 0 0 1 0 0 0 0 0 0 0 0
645 541 520 494 448 397 208 9 0 0 0 4 3 1 1 1 1 0 0 0 0 0